QPF
0.06 0.07 0.05 0.04 0.06 0.06 0.05 0.05 0.10 0.20 0.18 0.13 0.11 0.08 0.08 0.11 0.14 0.16 0.14 0.13 0.12 0.11 0.11 0.11 0.10 0.10 0.09 0.07 0.06 0.06 0.06 0.05 0.06 0.07 0.07 0.08 0.08 0.08 0.09 0.06 0.06 0.04 0.05
0.08 0.08 0.06 0.06 0.07 0.07 0.07 0.07 0.11 0.20 0.17 0.14 0.12 0.10 0.11 0.11 0.13 0.15 0.14 0.14 0.14 0.13 0.10 0.10 0.09 0.10 0.09 0.06 0.04 0.05 0.06 0.05 0.05 0.05 0.07 0.09 0.10 0.08 0.08 0.05 0.06 0.05 0.05
0.07 0.07 0.08 0.08 0.07 0.08 0.09 0.08 0.09 0.18 0.18 0.17 0.12 0.10 0.11 0.12 0.15 0.18 0.17 0.17 0.15 0.13 0.12 0.11 0.11 0.10 0.09 0.07 0.06 0.05 0.04 0.05 0.05 0.06 0.10 0.11 0.11 0.08 0.06 0.04 0.05 0.06 0.06
0.07 0.08 0.09 0.08 0.08 0.08 0.11 0.08 0.13 0.18 0.16 0.15 0.11 0.10 0.14 0.15 0.13 0.12 0.14 0.16 0.16 0.16 0.15 0.14 0.11 0.12 0.10 0.08 0.07 0.05 0.05 0.05 0.06 0.10 0.14 0.12 0.09 0.06 0.06 0.05 0.05 0.05 0.05
0.08 0.09 0.11 0.09 0.08 0.11 0.11 0.10 0.16 0.13 0.09 0.07 0.08 0.12 0.18 0.13 0.10 0.09 0.08 0.12 0.17 0.17 0.20 0.19 0.12 0.09 0.07 0.06 0.06 0.06 0.05 0.05 0.07 0.12 0.16 0.17 0.13 0.08 0.06 0.05 0.04 0.04 0.03
0.09 0.10 0.11 0.11 0.09 0.11 0.10 0.08 0.10 0.10 0.06 0.06 0.08 0.14 0.20 0.12 0.10 0.09 0.05 0.06 0.10 0.13 0.18 0.17 0.11 0.09 0.07 0.05 0.05 0.06 0.05 0.05 0.08 0.09 0.14 0.14 0.10 0.07 0.05 0.05 0.05 0.05 0.03
0.09 0.10 0.10 0.10 0.08 0.07 0.07 0.07 0.07 0.07 0.05 0.05 0.07 0.14 0.18 0.12 0.08 0.06 0.04 0.05 0.07 0.12 0.19 0.18 0.12 0.08 0.08 0.07 0.06 0.06 0.06 0.06 0.08 0.07 0.08 0.13 0.10 0.07 0.06 0.05 0.05 0.06 0.03
0.08 0.12 0.13 0.10 0.09 0.08 0.06 0.06 0.06 0.04 0.05 0.06 0.07 0.12 0.17 0.16 0.09 0.05 0.05 0.05 0.07 0.12 0.16 0.18 0.15 0.11 0.08 0.07 0.06 0.07 0.08 0.06 0.07 0.05 0.06 0.09 0.09 0.06 0.05 0.04 0.06 0.06 0.04
0.06 0.11 0.13 0.12 0.09 0.06 0.05 0.04 0.05 0.05 0.05 0.08 0.08 0.09 0.12 0.16 0.14 0.11 0.10 0.09 0.11 0.12 0.12 0.14 0.14 0.11 0.08 0.08 0.09 0.11 0.09 0.07 0.09 0.07 0.04 0.06 0.09 0.06 0.04 0.04 0.06 0.07 0.04
0.07 0.10 0.11 0.12 0.09 0.06 0.06 0.05 0.05 0.06 0.07 0.07 0.08 0.11 0.11 0.12 0.13 0.14 0.14 0.13 0.11 0.09 0.10 0.09 0.08 0.08 0.08 0.09 0.10 0.17 0.16 0.09 0.06 0.06 0.04 0.06 0.08 0.06 0.05 0.06 0.06 0.06 0.03
0.07 0.06 0.08 0.12 0.11 0.08 0.07 0.07 0.08 0.08 0.08 0.08 0.11 0.13 0.14 0.13 0.11 0.11 0.09 0.08 0.07 0.06 0.07 0.08 0.08 0.09 0.08 0.09 0.10 0.15 0.19 0.11 0.05 0.04 0.03 0.04 0.05 0.05 0.06 0.08 0.07 0.05 0.03
0.07 0.07 0.07 0.10 0.11 0.10 0.08 0.09 0.10 0.09 0.10 0.11 0.14 0.15 0.15 0.14 0.15 0.13 0.10 0.09 0.08 0.08 0.09 0.09 0.09 0.08 0.10 0.11 0.13 0.18 0.19 0.15 0.07 0.08 0.06 0.05 0.06 0.06 0.07 0.09 0.09 0.06 0.04
0.06 0.06 0.05 0.09 0.12 0.11 0.12 0.10 0.08 0.08 0.10 0.11 0.12 0.13 0.14 0.17 0.18 0.17 0.14 0.12 0.12 0.09 0.08 0.07 0.07 0.06 0.09 0.12 0.13 0.14 0.15 0.17 0.08 0.08 0.09 0.09 0.09 0.08 0.08 0.08 0.07 0.06 0.04
0.05 0.05 0.06 0.10 0.13 0.11 0.11 0.09 0.05 0.05 0.08 0.11 0.13 0.12 0.13 0.19 0.19 0.15 0.14 0.14 0.14 0.11 0.10 0.08 0.07 0.06 0.08 0.09 0.08 0.07 0.08 0.09 0.07 0.07 0.08 0.09 0.09 0.09 0.07 0.06 0.06 0.07 0.04
0.06 0.05 0.05 0.09 0.12 0.08 0.09 0.09 0.06 0.05 0.08 0.10 0.10 0.11 0.11 0.18 0.19 0.15 0.15 0.13 0.11 0.10 0.09 0.09 0.08 0.09 0.12 0.11 0.09 0.08 0.08 0.08 0.09 0.08 0.07 0.10 0.10 0.09 0.07 0.07 0.07 0.07 0.07
0.04 0.03 0.04 0.07 0.09 0.06 0.07 0.09 0.09 0.07 0.09 0.09 0.08 0.09 0.10 0.17 0.19 0.16 0.14 0.13 0.12 0.10 0.09 0.09 0.07 0.11 0.12 0.11 0.10 0.11 0.09 0.08 0.11 0.09 0.07 0.10 0.09 0.06 0.05 0.06 0.06 0.08 0.09
0.02 0.02 0.02 0.04 0.06 0.05 0.05 0.06 0.08 0.09 0.09 0.11 0.11 0.12 0.12 0.13 0.15 0.15 0.13 0.13 0.13 0.11 0.10 0.10 0.10 0.10 0.09 0.10 0.10 0.09 0.08 0.07 0.07 0.07 0.07 0.09 0.09 0.06 0.05 0.05 0.05 0.07 0.08
0.01 0.01 0.02 0.03 0.05 0.05 0.05 0.04 0.07 0.10 0.15 0.16 0.13 0.12 0.10 0.08 0.12 0.15 0.15 0.14 0.13 0.11 0.10 0.11 0.10 0.10 0.12 0.12 0.11 0.09 0.07 0.07 0.05 0.05 0.06 0.08 0.08 0.05 0.05 0.06 0.05 0.06 0.08
0.01 0.01 0.02 0.03 0.03 0.03 0.04 0.04 0.05 0.06 0.07 0.08 0.07 0.09 0.11 0.07 0.09 0.14 0.14 0.13 0.13 0.12 0.10 0.10 0.11 0.10 0.12 0.11 0.11 0.11 0.09 0.09 0.08 0.07 0.06 0.06 0.06 0.05 0.06 0.06 0.05 0.05 0.06
0.01 0.01 0.01 0.03 0.03 0.04 0.04 0.03 0.04 0.04 0.05 0.05 0.06 0.08 0.10 0.08 0.07 0.11 0.12 0.13 0.12 0.11 0.10 0.09 0.11 0.10 0.10 0.10 0.10 0.12 0.12 0.11 0.10 0.09 0.08 0.08 0.07 0.05 0.06 0.07 0.09 0.07 0.05
0.01 0.02 0.03 0.07 0.06 0.05 0.05 0.04 0.04 0.05 0.06 0.06 0.06 0.06 0.08 0.10 0.09 0.09 0.12 0.15 0.13 0.12 0.11 0.10 0.11 0.11 0.10 0.09 0.09 0.11 0.12 0.10 0.10 0.09 0.08 0.10 0.08 0.07 0.08 0.11 0.13 0.13 0.10
0.01 0.02 0.05 0.08 0.06 0.04 0.05 0.05 0.04 0.04 0.04 0.06 0.09 0.09 0.09 0.10 0.12 0.12 0.11 0.10 0.12 0.12 0.10 0.10 0.11 0.12 0.11 0.09 0.11 0.13 0.13 0.13 0.13 0.11 0.10 0.10 0.08 0.08 0.09 0.09 0.09 0.09 0.06
0.01 0.02 0.05 0.06 0.06 0.07 0.06 0.04 0.05 0.05 0.04 0.05 0.09 0.13 0.13 0.13 0.11 0.09 0.09 0.08 0.10 0.10 0.09 0.10 0.10 0.09 0.10 0.10 0.09 0.12 0.13 0.14 0.15 0.13 0.09 0.07 0.09 0.09 0.08 0.07 0.07 0.07 0.06
0.01 0.02 0.03 0.04 0.05 0.07 0.06 0.05 0.06 0.05 0.05 0.06 0.06 0.08 0.11 0.12 0.09 0.07 0.07 0.08 0.09 0.08 0.09 0.09 0.07 0.09 0.09 0.08 0.07 0.07 0.08 0.10 0.12 0.13 0.10 0.08 0.10 0.11 0.10 0.07 0.08 0.08 0.09
0.01 0.01 0.02 0.04 0.05 0.05 0.05 0.05 0.05 0.04 0.05 0.06 0.07 0.09 0.10 0.12 0.10 0.07 0.07 0.08 0.07 0.07 0.07 0.07 0.09 0.08 0.07 0.07 0.07 0.07 0.06 0.08 0.08 0.10 0.11 0.09 0.09 0.06 0.05 0.07 0.08 0.08 0.09
0.01 0.01 0.02 0.03 0.04 0.04 0.04 0.04 0.03 0.04 0.07 0.09 0.10 0.12 0.09 0.08 0.09 0.09 0.08 0.08 0.07 0.08 0.07 0.07 0.07 0.06 0.06 0.06 0.07 0.06 0.06 0.06 0.08 0.09 0.09 0.11 0.10 0.07 0.05 0.05 0.05 0.04 0.04
MSLP
1008.15 1007.87 1007.74 1007.74 1007.82 1007.89 1007.87 1007.71 1007.41 1007.00 1006.55 1006.15 1005.87 1005.74 1005.79 1005.98 1006.26 1006.58 1006.91 1007.25 1007.58 1007.96 1008.40 1008.93 1009.54 1010.22 1010.93 1011.61 1012.23 1012.76 1013.18 1013.50 1013.74 1013.91 1014.04 1014.16 1014.28 1014.40 1014.53 1014.67 1014.82 1014.99 1015.17
1008.27 1008.11 1008.10 1008.23 1008.41 1008.54 1008.55 1008.39 1008.08 1007.65 1007.20 1006.83 1006.61 1006.56 1006.69 1006.95 1007.29 1007.64 1007.97 1008.27 1008.57 1008.89 1009.28 1009.76 1010.33 1010.96 1011.60 1012.21 1012.73 1013.14 1013.45 1013.65 1013.80 1013.92 1014.04 1014.18 1014.35 1014.54 1014.74 1014.95 1015.15 1015.35 1015.55
1008.33 1008.29 1008.41 1008.65 1008.91 1009.11 1009.17 1009.03 1008.74 1008.33 1007.92 1007.60 1007.43 1007.44 1007.62 1007.92 1008.27 1008.61 1008.91 1009.17 1009.42 1009.70 1010.05 1010.49 1011.01 1011.58 1012.14 1012.65 1013.06 1013.36 1013.54 1013.65 1013.73 1013.82 1013.95 1014.14 1014.37 1014.64 1014.91 1015.18 1015.43 1015.65 1015.86
1008.31 1008.38 1008.61 1008.95 1009.30 1009.57 1009.68 1009.60 1009.36 1009.01 1008.67 1008.41 1008.30 1008.37 1008.58 1008.88 1009.21 1009.51 1009.76 1009.97 1010.17 1010.41 1010.72 1011.13 1011.60 1012.10 1012.58 1012.98 1013.28 1013.45 1013.54 1013.57 1013.61 1013.70 1013.86 1014.10 1014.40 1014.73 1015.07 1015.38 1015.65 1015.89 1016.10
1008.22 1008.39 1008.71 1009.13 1009.55 1009.89 1010.07 1010.06 1009.89 1009.64 1009.38 1009.21 1009.17 1009.28 1009.50 1009.79 1010.08 1010.33 1010.53 1010.69 1010.85 1011.06 1011.34 1011.71 1012.14 1012.58 1012.97 1013.26 1013.44 1013.51 1013.50 1013.49 1013.50 1013.61 1013.81 1014.11 1014.48 1014.86 1015.23 1015.55 1015.83 1016.06 1016.27
1008.09 1008.33 1008.73 1009.21 1009.69 1010.09 1010.33 1010.39 1010.32 1010.17 1010.01 1009.93 1009.96 1010.11 1010.34 1010.61 1010.85 1011.05 1011.20 1011.32 1011.46 1011.65 1011.92 1012.26 1012.65 1013.02 1013.33 1013.52 1013.59 1013.57 1013.50 1013.45 1013.47 1013.61 1013.86 1014.22 1014.62 1015.04 1015.41 1015.73 1015.98 1016.19 1016.37
1007.97 1008.27 1008.71 1009.23 1009.75 1010.18 1010.47 1010.61 1010.62 1010.56 1010.50 1010.50 1010.60 1010.78 1011.02 1011.27 1011.48 1011.64 1011.75 1011.85 1011.98 1012.17 1012.44 1012.77 1013.12 1013.44 1013.66 1013.76 1013.75 1013.65 1013.54 1013.47 1013.51 1013.69 1014.00 1014.40 1014.84 1015.26 1015.62 1015.90 1016.10 1016.27 1016.43
1007.91 1008.24 1008.70 1009.25 1009.77 1010.22 1010.54 1010.72 1010.79 1010.80 1010.82 1010.89 1011.04 1011.25 1011.50 1011.73 1011.92 1012.05 1012.15 1012.25 1012.39 1012.60 1012.87 1013.20 1013.52 1013.78 1013.93 1013.96 1013.88 1013.73 1013.59 1013.52 1013.59 1013.81 1014.17 1014.61 1015.07 1015.49 1015.82 1016.05 1016.21 1016.32 1016.45
1007.92 1008.27 1008.75 1009.28 1009.80 1010.24 1010.55 1010.75 1010.85 1010.91 1010.98 1011.10 1011.29 1011.51 1011.76 1011.98 1012.16 1012.29 1012.39 1012.50 1012.66 1012.88 1013.17 1013.48 1013.78 1013.99 1014.09 1014.06 1013.92 1013.74 1013.59 1013.54 1013.64 1013.91 1014.31 1014.79 1015.26 1015.67 1015.98 1016.17 1016.27 1016.34 1016.43
1008.01 1008.37 1008.84 1009.35 1009.84 1010.25 1010.54 1010.73 1010.83 1010.91 1011.01 1011.15 1011.35 1011.59 1011.84 1012.06 1012.23 1012.36 1012.47 1012.60 1012.77 1013.00 1013.29 1013.59 1013.86 1014.04 1014.09 1014.01 1013.84 1013.64 1013.49 1013.46 1013.59 1013.90 1014.34 1014.85 1015.34 1015.75 1016.04 1016.21 1016.28 1016.33 1016.40
1008.15 1008.51 1008.97 1009.45 1009.90 1010.26 1010.52 1010.68 1010.77 1010.84 1010.94 1011.09 1011.30 1011.54 1011.79 1012.01 1012.18 1012.32 1012.43 1012.56 1012.74 1012.97 1013.24 1013.52 1013.76 1013.90 1013.91 1013.80 1013.61 1013.41 1013.26 1013.25 1013.41 1013.74 1014.21 1014.74 1015.26 1015.68 1015.98 1016.15 1016.22 1016.27 1016.34
1008.30 1008.66 1009.09 1009.55 1009.95 1010.27 1010.49 1010.61 1010.67 1010.73 1010.82 1010.97 1011.18 1011.42 1011.67 1011.89 1012.07 1012.20 1012.32 1012.45 1012.61 1012.82 1013.07 1013.31 1013.51 1013.61 1013.60 1013.48 1013.28 1013.08 1012.94 1012.94 1013.10 1013.45 1013.93 1014.47 1015.00 1015.45 1015.78 1015.98 1016.09 1016.16 1016.25
1008.41 1008.77 1009.19 1009.62 1009.99 1010.26 1010.44 1010.53 1010.57 1010.61 1010.69 1010.84 1011.04 1011.29 1011.54 1011.77 1011.95 1012.09 1012.20 1012.31 1012.45 1012.63 1012.83 1013.03 1013.19 1013.27 1013.24 1013.11 1012.92 1012.72 1012.59 1012.58 1012.74 1013.08 1013.54 1014.08 1014.62 1015.09 1015.46 1015.72 1015.89 1016.01 1016.13
1008.47 1008.84 1009.24 1009.65 1009.99 1010.24 1010.39 1010.46 1010.48 1010.51 1010.58 1010.72 1010.93 1011.17 1011.43 1011.67 1011.87 1012.01 1012.12 1012.22 1012.33 1012.47 1012.62 1012.78 1012.91 1012.96 1012.93 1012.81 1012.63 1012.44 1012.31 1012.29 1012.42 1012.71 1013.13 1013.64 1014.17 1014.66 1015.07 1015.39 1015.63 1015.81 1015.98
1008.48 1008.85 1009.25 1009.64 1009.97 1010.20 1010.34 1010.39 1010.41 1010.43 1010.50 1010.63 1010.84 1011.10 1011.37 1011.63 1011.84 1012.00 1012.12 1012.20 1012.29 1012.39 1012.51 1012.63 1012.73 1012.78 1012.76 1012.66 1012.51 1012.34 1012.20 1012.16 1012.23 1012.46 1012.81 1013.25 1013.75 1014.23 1014.68 1015.05 1015.35 1015.60 1015.82
1008.44 1008.82 1009.23 1009.61 1009.94 1010.17 1010.31 1010.36 1010.38 1010.39 1010.45 1010.58 1010.79 1011.05 1011.34 1011.62 1011.86 1012.05 1012.18 1012.27 1012.35 1012.43 1012.53 1012.63 1012.73 1012.79 1012.79 1012.73 1012.61 1012.47 1012.33 1012.25 1012.26 1012.40 1012.65 1013.01 1013.43 1013.89 1014.34 1014.75 1015.11 1015.41 1015.67
1008.39 1008.79 1009.21 1009.60 1009.93 1010.17 1010.32 1010.38 1010.40 1010.41 1010.45 1010.57 1010.77 1011.03 1011.33 1011.64 1011.91 1012.13 1012.29 1012.41 1012.49 1012.57 1012.67 1012.77 1012.87 1012.96 1013.01 1013.00 1012.93 1012.82 1012.69 1012.57 1012.52 1012.55 1012.70 1012.95 1013.29 1013.69 1014.12 1014.54 1014.93 1015.27 1015.56
1008.34 1008.76 1009.20 1009.61 1009.96 1010.22 1010.38 1010.46 1010.47 1010.48 1010.51 1010.60 1010.78 1011.03 1011.33 1011.66 1011.96 1012.22 1012.42 1012.57 1012.69 1012.78 1012.89 1013.00 1013.13 1013.26 1013.36 1013.41 1013.39 1013.32 1013.21 1013.07 1012.96 1012.91 1012.94 1013.09 1013.33 1013.66 1014.05 1014.46 1014.86 1015.22 1015.52
1008.27 1008.73 1009.19 1009.63 1010.01 1010.29 1010.49 1010.58 1010.61 1010.60 1010.61 1010.68 1010.82 1011.05 1011.34 1011.66 1011.99 1012.29 1012.54 1012.73 1012.88 1013.01 1013.13 1013.27 1013.42 1013.59 1013.74 1013.85 1013.90 1013.88 1013.79 1013.66 1013.51 1013.39 1013.34 1013.38 1013.54 1013.79 1014.13 1014.52 1014.91 1015.28 1015.58
1008.17 1008.67 1009.16 1009.63 1010.05 1010.38 1010.61 1010.74 1010.78 1010.77 1010.76 1010.79 1010.89 1011.08 1011.35 1011.67 1012.01 1012.34 1012.62 1012.85 1013.04 1013.19 1013.34 1013.50 1013.68 1013.87 1014.06 1014.23 1014.34 1014.37 1014.33 1014.22 1014.07 1013.92 1013.82 1013.79 1013.87 1014.06 1014.35 1014.71 1015.09 1015.45 1015.76
1008.00 1008.53 1009.05 1009.56 1010.02 1010.41 1010.69 1010.87 1010.95 1010.96 1010.94 1010.94 1011.01 1011.15 1011.38 1011.69 1012.02 1012.37 1012.68 1012.94 1013.15 1013.33 1013.49 1013.65 1013.84 1014.05 1014.27 1014.48 1014.64 1014.74 1014.75 1014.69 1014.56 1014.42 1014.29 1014.24 1014.27 1014.42 1014.67 1015.00 1015.36 1015.72 1016.03
1007.69 1008.25 1008.81 1009.35 1009.87 1010.32 1010.68 1010.93 1011.06 1011.12 1011.11 1011.11 1011.15 1011.26 1011.45 1011.73 1012.05 1012.39 1012.72 1012.99 1013.22 1013.41 1013.57 1013.73 1013.91 1014.11 1014.34 1014.57 1014.78 1014.93 1015.00 1015.00 1014.93 1014.82 1014.72 1014.66 1014.69 1014.81 1015.04 1015.35 1015.70 1016.05 1016.36
1007.23 1007.80 1008.38 1008.96 1009.53 1010.05 1010.51 1010.85 1011.08 1011.20 1011.25 1011.27 1011.30 1011.39 1011.56 1011.80 1012.10 1012.43 1012.75 1013.04 1013.27 1013.45 1013.60 1013.74 1013.90 1014.09 1014.31 1014.55 1014.78 1014.97 1015.11 1015.17 1015.17 1015.12 1015.07 1015.04 1015.08 1015.20 1015.41 1015.70 1016.04 1016.39 1016.70
1006.62 1007.17 1007.75 1008.36 1008.98 1009.59 1010.15 1010.61 1010.96 1011.18 1011.31 1011.37 1011.43 1011.52 1011.67 1011.89 1012.17 1012.49 1012.80 1013.08 1013.30 1013.48 1013.62 1013.74 1013.87 1014.04 1014.24 1014.47 1014.72 1014.94 1015.13 1015.25 1015.32 1015.34 1015.34 1015.36 1015.42 1015.55 1015.75 1016.03 1016.34 1016.67 1016.97
1005.88 1006.40 1006.97 1007.59 1008.26 1008.95 1009.61 1010.20 1010.68 1011.03 1011.26 1011.40 1011.50 1011.61 1011.76 1011.97 1012.24 1012.53 1012.84 1013.11 1013.34 1013.52 1013.65 1013.76 1013.87 1014.01 1014.20 1014.42 1014.67 1014.91 1015.13 1015.31 1015.44 1015.52 1015.57 1015.63 1015.71 1015.85 1016.04 1016.29 1016.57 1016.87 1017.14
1005.10 1005.56 1006.09 1006.72 1007.43 1008.19 1008.95 1009.66 1010.27 1010.74 1011.08 1011.32 1011.48 1011.63 1011.79 1012.00 1012.25 1012.55 1012.85 1013.13 1013.37 1013.56 1013.70 1013.82 1013.93 1014.07 1014.24 1014.45 1014.69 1014.95 1015.20 1015.41 1015.58 1015.70 1015.80 1015.88 1015.98 1016.11 1016.27 1016.48 1016.71 1016.96 1017.18
Thickness
5807 5807 5804 5803 5801 5799 5798 5797 5796 5795 5794 5792 5791 5791 5790 5788 5787 5785 5784 5783 5781 5779 5777 5775 5774 5774 5772 5772 5770 5769 5768 5767 5766 5765 5764 5763 5762 5761 5760 5759 5759 5757 5756
5810 5807 5804 5802 5800 5798 5796 5796 5794 5793 5791 5790 5790 5789 5787 5786 5785 5784 5783 5781 5779 5778 5776 5774 5773 5772 5771 5770 5769 5768 5767 5766 5765 5764 5764 5762 5761 5760 5759 5758 5758 5756 5754
5810 5806 5803 5801 5799 5797 5795 5794 5793 5791 5789 5788 5787 5786 5785 5784 5783 5782 5781 5780 5778 5777 5775 5773 5772 5771 5770 5769 5767 5766 5765 5765 5764 5764 5763 5762 5760 5759 5758 5757 5756 5754 5753
5810 5806 5802 5799 5797 5795 5793 5792 5791 5789 5787 5786 5786 5784 5783 5782 5782 5781 5780 5779 5777 5775 5774 5772 5771 5770 5769 5768 5767 5766 5765 5764 5764 5764 5764 5763 5760 5758 5756 5755 5754 5752 5751
5809 5805 5799 5797 5795 5793 5792 5791 5789 5787 5786 5785 5784 5783 5782 5781 5781 5781 5780 5778 5776 5774 5773 5772 5771 5769 5768 5767 5766 5765 5765 5764 5764 5764 5764 5762 5760 5757 5755 5754 5752 5751 5750
5807 5803 5798 5795 5794 5792 5791 5789 5787 5786 5784 5783 5782 5781 5779 5779 5779 5779 5778 5778 5776 5775 5773 5772 5770 5768 5767 5766 5766 5765 5765 5764 5764 5765 5764 5762 5759 5757 5755 5753 5752 5750 5748
5806 5802 5797 5794 5793 5791 5789 5788 5786 5785 5783 5782 5781 5779 5778 5778 5778 5778 5778 5777 5776 5775 5773 5771 5770 5768 5767 5766 5766 5765 5764 5764 5764 5765 5764 5761 5758 5756 5755 5753 5751 5749 5747
5805 5801 5796 5793 5791 5790 5788 5787 5785 5783 5782 5780 5779 5778 5777 5777 5777 5777 5777 5777 5775 5774 5773 5771 5769 5768 5767 5766 5766 5765 5765 5765 5766 5766 5763 5760 5758 5756 5754 5753 5750 5748 5746
5804 5800 5796 5793 5790 5788 5787 5786 5785 5783 5781 5779 5778 5777 5776 5776 5775 5776 5776 5775 5774 5774 5772 5771 5770 5768 5767 5767 5766 5766 5765 5765 5765 5765 5764 5760 5758 5756 5754 5752 5750 5748 5746
5803 5799 5796 5794 5791 5789 5787 5785 5784 5782 5780 5779 5777 5776 5775 5775 5775 5775 5774 5774 5774 5773 5772 5771 5770 5769 5768 5767 5767 5766 5766 5766 5766 5765 5763 5760 5758 5755 5753 5752 5750 5748 5746
5799 5798 5796 5794 5791 5790 5788 5786 5783 5782 5780 5778 5776 5775 5774 5774 5774 5774 5774 5773 5773 5773 5772 5771 5771 5769 5769 5768 5767 5767 5766 5767 5768 5766 5764 5760 5758 5756 5754 5752 5750 5749 5746
5794 5795 5795 5792 5790 5789 5788 5785 5783 5782 5779 5777 5776 5774 5773 5773 5773 5774 5774 5773 5773 5773 5772 5772 5771 5770 5769 5769 5768 5768 5767 5768 5767 5766 5763 5761 5758 5756 5754 5752 5750 5749 5747
5794 5794 5793 5790 5788 5787 5785 5784 5783 5781 5778 5777 5775 5774 5773 5773 5773 5773 5773 5773 5773 5773 5773 5773 5772 5771 5771 5770 5770 5769 5769 5769 5768 5766 5762 5761 5759 5756 5754 5753 5751 5749 5747
5793 5792 5791 5790 5787 5785 5784 5783 5782 5781 5778 5776 5774 5773 5773 5773 5773 5773 5774 5774 5774 5774 5774 5774 5773 5773 5773 5772 5772 5771 5770 5769 5768 5765 5762 5760 5758 5756 5754 5753 5751 5749 5747
5792 5791 5790 5789 5786 5784 5782 5782 5782 5781 5779 5776 5775 5773 5773 5773 5773 5774 5775 5775 5775 5774 5774 5774 5775 5775 5773 5773 5772 5772 5771 5769 5767 5765 5762 5760 5758 5756 5755 5753 5751 5749 5748
5793 5791 5791 5789 5786 5784 5782 5781 5781 5780 5779 5777 5775 5774 5774 5773 5773 5773 5774 5774 5774 5775 5775 5775 5775 5774 5772 5772 5771 5771 5770 5768 5766 5765 5762 5760 5758 5756 5755 5754 5752 5750 5749
5794 5793 5791 5789 5786 5784 5782 5781 5781 5780 5779 5777 5775 5774 5774 5773 5773 5773 5773 5773 5774 5775 5775 5774 5774 5773 5772 5771 5770 5770 5769 5768 5766 5765 5763 5760 5758 5757 5756 5754 5753 5751 5749
5797 5793 5792 5792 5787 5784 5783 5781 5781 5780 5779 5777 5776 5775 5774 5773 5774 5773 5773 5773 5774 5775 5774 5773 5773 5772 5770 5769 5768 5768 5768 5767 5766 5764 5763 5761 5759 5758 5756 5754 5753 5751 5750
5799 5795 5792 5791 5787 5785 5784 5782 5782 5780 5779 5778 5777 5776 5775 5774 5774 5773 5773 5773 5774 5773 5773 5773 5772 5770 5768 5767 5767 5767 5767 5766 5766 5765 5763 5762 5760 5759 5757 5754 5753 5751 5750
5801 5797 5793 5790 5788 5786 5785 5782 5781 5780 5779 5779 5777 5776 5775 5774 5774 5774 5773 5773 5773 5772 5771 5771 5769 5769 5768 5766 5766 5765 5765 5766 5765 5764 5763 5763 5762 5760 5758 5756 5753 5751 5750
5802 5797 5794 5790 5787 5786 5783 5781 5778 5777 5778 5778 5778 5777 5776 5775 5775 5774 5773 5773 5772 5770 5770 5769 5768 5766 5765 5766 5761 5759 5761 5765 5764 5764 5763 5762 5762 5761 5759 5757 5754 5752 5751
5802 5798 5795 5791 5788 5786 5785 5783 5782 5780 5780 5779 5778 5777 5776 5775 5775 5775 5773 5772 5771 5769 5768 5767 5766 5763 5763 5764 5759 5754 5750 5753 5758 5763 5761 5760 5761 5760 5759 5757 5755 5753 5752
5804 5800 5797 5793 5790 5788 5787 5785 5783 5781 5779 5777 5776 5775 5776 5775 5774 5773 5772 5771 5770 5769 5767 5766 5765 5763 5759 5761 5762 5756 5748 5745 5751 5756 5760 5760 5760 5759 5758 5756 5756 5754 5752
5807 5804 5800 5795 5791 5789 5787 5784 5781 5777 5774 5775 5775 5775 5775 5775 5774 5773 5772 5770 5769 5768 5767 5766 5766 5764 5762 5759 5761 5762 5760 5757 5749 5747 5754 5757 5759 5758 5757 5757 5756 5755 5752
5812 5807 5801 5796 5792 5789 5787 5784 5781 5779 5777 5777 5777 5775 5774 5774 5774 5773 5771 5769 5768 5767 5766 5765 5764 5764 5763 5760 5759 5759 5758 5757 5756 5748 5744 5749 5754 5757 5757 5757 5756 5754 5752
5813 5808 5803 5796 5791 5789 5786 5784 5781 5778 5777 5775 5773 5772 5772 5772 5772 5772 5770 5769 5768 5766 5766 5765 5764 5763 5762 5761 5760 5758 5756 5753 5751 5750 5746 5746 5747 5753 5757 5757 5755 5754 5752